Location: Radomski Observatory
(40.2854°N, 79.5145°W)
Time: 23:17:45
(UTC-05:00)

Amateur Radio Satellites - All Passes

Search period start: 21 December 2014 22:47
Search period end: 22 December 2014 22:47
Location: Radomski Observatory, 40.2854°N, 79.5145°W

Satellite Date Start Highest point End Downlink Frequencies (MHz)
Time Altitude Azimuth
AISAT 21 Dec 22:51:37 22:55:29 30° 263° (W) 22:59:22 437.250
CUBEBUG 1 21 Dec 22:52:12 22:56:34 81° 257° (WSW) 23:00:57 437.445
HUMSAT D 21 Dec 22:52:54 22:56:23 26° 265° (W) 22:59:55 437.325/437.525
DANDE 21 Dec 22:53:58 22:57:30 14° 280° (W) 23:01:10 436.750
QB50P1 21 Dec 22:57:10 23:01:17 45° 99° (E) 23:05:22 145.935-145.965
BEESAT 2 21 Dec 22:59:52 23:03:29 28° 247° (WSW) 23:07:02 435.950
SO-50 21 Dec 23:04:09 23:05:33 11° 325° (NW) 23:06:57 436.795
ANTELSAT 21 Dec 23:04:58 23:09:43 89° 104° (ESE) 23:14:27 437.575/2403.000
YUBILEINY 21 Dec 23:05:05 23:12:51 38° 86° (E) 23:20:35 435.215
POPSAT HIP 1 21 Dec 23:25:56 23:30:13 84° 284° (WNW) 23:34:30 437.405
PCSat 21 Dec 23:31:09 23:36:24 50° 247° (WSW) 23:41:36 145.827
RS-15 21 Dec 23:31:44 23:38:39 19° 261° (W) 23:45:45 29.354- 29.394
SWISSCUBE 21 Dec 23:35:35 23:37:58 14° 62° (ENE) 23:40:21 437.505
ITUPSAT 1 21 Dec 23:36:54 23:39:01 13° 61° (ENE) 23:41:09 437.325
TIGRISAT 21 Dec 23:39:55 23:44:20 41° 289° (WNW) 23:48:45 435.000
BUGSAT 1 21 Dec 23:46:00 23:50:00 60° 286° (WNW) 23:54:02 437.445
TISAT 1 21 Dec 23:47:23 23:51:35 80° 257° (WSW) 23:55:49 437.305
ESTCUBE 1 21 Dec 23:52:20 23:55:29 18° 267° (W) 23:58:39 437.505/2401.250
DUCHIFAT 1 21 Dec 23:53:30 23:57:29 40° 288° (WNW) 00:01:29 145.980
SPROUT 21 Dec 23:55:01 23:59:16 72° 258° (WSW) 00:03:34 437.525
BEESAT 21 Dec 23:58:52 00:02:29 22° 65° (ENE) 00:06:05 436.000
AUBIESAT-1 22 Dec 00:07:47 00:10:54 17° 58° (ENE) 00:14:01 437.475
QB50P2 22 Dec 00:08:20 00:11:59 28° 291° (WNW) 00:15:38 145.880/145.840
O/OREOS (USA 219) 22 Dec 00:09:17 00:13:27 40° 106° (ESE) 00:17:38 437.305
UNISAT 6 22 Dec 00:10:32 00:14:02 21° 294° (WNW) 00:17:33 437.425
AIST 2 22 Dec 00:13:12 00:14:38 12° 253° (WSW) 00:16:03 435.215
POLYITAN 1 22 Dec 00:17:54 00:21:16 23° 292° (WNW) 00:24:38 437.675
NANOSAT C BR1 22 Dec 00:18:57 00:22:15 22° 292° (WNW) 00:25:33 145.865
M-CUBED/EXP-1 PRIME 22 Dec 00:33:01 00:37:18 32° 64° (ENE) 00:41:37 437.505
QB50P1 22 Dec 00:34:12 00:36:48 16° 295° (WNW) 00:39:23 145.935-145.965
KKS-1 22 Dec 00:42:59 00:44:25 11° 61° (ENE) 00:45:50 437.445
ANTELSAT 22 Dec 00:44:58 00:45:46 10° 300° (WNW) 00:46:34 437.575/2403.000
YUBILEINY 22 Dec 01:01:07 01:09:25 47° 285° (WNW) 01:17:44 435.215
SWISSCUBE 22 Dec 01:10:28 01:15:14 68° 258° (WSW) 01:20:02 437.505
Oscar 19 22 Dec 01:10:54 01:15:29 31° 96° (E) 01:20:02 437.125/150
ITUPSAT 1 22 Dec 01:11:29 01:16:17 73° 257° (WSW) 01:21:06 437.325
ITAMSAT 1 22 Dec 01:30:42 01:34:00 17° 92° (E) 01:37:16 435.822/435.867
Gurwin Techsat 1B 22 Dec 01:35:31 01:37:00 11° 89° (E) 01:38:29 435.225
BEESAT 22 Dec 01:35:32 01:40:02 40° 261° (W) 01:44:34 436.000
AUBIESAT-1 22 Dec 01:40:32 01:45:19 63° 254° (WSW) 01:50:11 437.475
O/OREOS (USA 219) 22 Dec 01:49:47 01:53:02 20° 303° (WNW) 01:56:18 437.305
M-CUBED/EXP-1 PRIME 22 Dec 02:07:55 02:12:11 31° 259° (W) 02:16:32 437.505
STARS 22 Dec 02:09:17 02:13:36 64° 74° (ENE) 02:17:57 437.465
KKS-1 22 Dec 02:16:02 02:20:26 72° 258° (WSW) 02:24:53 437.445
VERMONT LUNAR 22 Dec 02:30:10 02:33:21 32° 155° (SSE) 02:36:32 437.305
Oscar 19 22 Dec 02:50:12 02:54:46 32° 292° (WNW) 02:59:18 437.125/150
AIST 1 22 Dec 02:50:59 02:54:26 23° 74° (ENE) 02:57:50
PHONESAT 2.4 22 Dec 02:51:00 02:54:14 30° 154° (SSE) 02:57:28 2401.200-2431.200
AO-7 22 Dec 02:53:52 02:57:59 14° 89° (E) 03:02:04 29.400- 29.500
ITAMSAT 1 22 Dec 03:08:46 03:13:49 56° 288° (WNW) 03:18:52 435.822/435.867
Gurwin Techsat 1B 22 Dec 03:12:15 03:17:35 84° 285° (WNW) 03:22:53 435.225
MOZHAYETS 4 22 Dec 03:36:32 03:40:21 26° 68° (ENE) 03:44:11
HORYU 2 22 Dec 03:39:22 03:43:54 75° 103° (ESE) 03:48:24 437.375
STARS 22 Dec 03:49:18 03:50:29 11° 270° (W) 03:51:41 437.465
VERMONT LUNAR 22 Dec 04:07:56 04:11:28 85° 170° (S) 04:15:00 437.305
SO-50 22 Dec 04:12:05 04:15:09 16° 40° (NE) 04:18:13 436.795
AIST 1 22 Dec 04:28:28 04:32:02 26° 271° (W) 04:35:34
PHONESAT 2.4 22 Dec 04:29:04 04:32:42 83° 170° (S) 04:36:20 2401.200-2431.200
AO-7 22 Dec 04:43:31 04:51:57 79° 107° (ESE) 05:00:18 29.400- 29.500
Gurwin Techsat 1B 22 Dec 04:55:10 04:56:42 11° 302° (WNW) 04:58:13 435.225
GONETS M04 22 Dec 04:59:41 05:07:53 45° 88° (E) 05:16:06
CUBESAT XI-V 22 Dec 05:05:01 05:07:56 17° 65° (ENE) 05:10:51 437.345
CUTE-I 22 Dec 05:12:59 05:13:24 10° 88° (E) 05:13:49 437.470
MOZHAYETS 4 22 Dec 05:13:19 05:17:26 31° 264° (W) 05:21:34
HORYU 2 22 Dec 05:18:31 05:19:55 11° 299° (WNW) 05:21:20 437.375
JAS-2 22 Dec 05:21:39 05:27:13 69° 102° (ESE) 05:32:23 435.910
PRISM 22 Dec 05:22:34 05:26:39 51° 73° (ENE) 05:30:46 437.425
VERMONT LUNAR 22 Dec 05:46:16 05:49:49 86° 188° (S) 05:53:21 437.305
STRAND 1 22 Dec 05:51:09 05:55:59 45° 70° (ENE) 06:00:49 437.568
SO-50 22 Dec 05:51:25 05:56:20 84° 239° (WSW) 06:01:14 436.795
PHONESAT 2.4 22 Dec 06:07:47 06:11:25 88° 188° (S) 06:15:03 2401.200-2431.200
Cubesat XI-IV 22 Dec 06:16:08 06:21:15 46° 99° (E) 06:26:20 437.490
AO-7 22 Dec 06:37:32 06:43:51 25° 306° (NW) 06:50:10 29.400- 29.500
CUBESAT XI-V 22 Dec 06:40:24 06:44:57 51° 261° (W) 06:49:30 437.345
CUTE-I 22 Dec 06:48:48 06:54:08 90° 285° (WNW) 06:59:28 437.470
GONETS M04 22 Dec 06:56:38 07:04:45 40° 287° (WNW) 07:12:55
PRISM 22 Dec 07:00:29 07:02:28 13° 268° (W) 07:04:27 437.425
JAS-2 22 Dec 07:08:30 07:11:35 15° 302° (WNW) 07:14:34 435.910
VERMONT LUNAR 22 Dec 07:24:44 07:27:56 33° 204° (SSW) 07:31:08 437.305
STRAND 1 22 Dec 07:31:33 07:35:21 21° 266° (W) 07:39:10 437.568
PHONESAT 2.4 22 Dec 07:46:35 07:49:56 35° 204° (SSW) 07:53:17 2401.200-2431.200
BRITE-PL 22 Dec 07:53:01 07:55:03 12° 91° (E) 07:57:08 437.365/2234.400
Cubesat XI-IV 22 Dec 07:56:56 08:01:01 23° 296° (WNW) 08:05:06 437.490
CANX-2 22 Dec 08:04:16 08:06:15 13° 91° (E) 08:08:13 2200.000
GOMX 1 22 Dec 08:10:37 08:13:08 14° 91° (E) 08:15:41 467.674
HO-68 22 Dec 08:19:40 08:25:40 28° 95° (E) 08:31:37 435.675
COMPASS 1 22 Dec 08:21:10 08:23:06 13° 91° (E) 08:25:02 437.405
DOVE 4 22 Dec 08:27:45 08:30:38 15° 92° (E) 08:33:34 437.250
SEEDS 22 Dec 08:28:10 08:31:13 19° 93° (E) 08:34:15 437.485
CUTE-I 22 Dec 08:31:24 08:33:25 12° 301° (WNW) 08:35:25 437.470
CUTE 1.7 + AOD 2 22 Dec 08:33:30 08:37:06 25° 95° (E) 08:40:40 437.475
CINEMA 3 22 Dec 08:41:18 08:43:10 12° 90° (E) 08:45:02 145.822/145.860
DANDE 22 Dec 08:41:34 08:43:35 14° 80° (E) 08:45:52 436.750
DX 1 22 Dec 08:59:07 08:59:42 10° 90° (E) 09:00:17 434.975-435.025
TIGRISAT 22 Dec 09:03:24 09:06:08 16° 64° (ENE) 09:08:55 435.000
MaSat-1 22 Dec 09:12:21 09:13:52 16° 301° (WNW) 09:15:22 437.345
DUCHIFAT 1 22 Dec 09:12:33 09:14:19 13° 63° (ENE) 09:16:05 145.980
Oscar 11 22 Dec 09:15:56 09:19:28 24° 95° (E) 09:22:58 145.826/435.025
YUBILEINY 22 Dec 09:16:27 09:21:50 17° 62° (ENE) 09:27:11 435.215
AAUSAT CUBESAT 2 22 Dec 09:18:16 09:22:25 51° 100° (E) 09:26:31 437.432
CUSAT 1 22 Dec 09:21:53 09:25:30 55° 94° (E) 09:30:22 437.405
UKube-1 22 Dec 09:25:49 09:29:08 21° 95° (E) 09:32:25 .
QB50P2 22 Dec 09:26:10 09:29:03 18° 66° (ENE) 09:31:57 145.880/145.840
BRITE-PL 22 Dec 09:29:08 09:33:53 71° 285° (WNW) 09:39:01 437.365/2234.400
UNISAT 6 22 Dec 09:32:07 09:36:01 33° 70° (ENE) 09:40:03 437.425
RS-15 22 Dec 09:34:35 09:39:35 14° 97° (E) 09:44:32 29.354- 29.394
POLYITAN 1 22 Dec 09:35:11 09:38:28 23° 68° (ENE) 09:41:46 437.675
NANOSAT C BR1 22 Dec 09:35:48 09:39:04 23° 68° (ENE) 09:42:22 145.865
CANX-2 22 Dec 09:38:17 09:42:30 53° 286° (WNW) 09:46:41 2200.000
GOMX 1 22 Dec 09:46:45 09:51:32 65° 285° (WNW) 09:56:38 467.674
CUBEBUG 2 22 Dec 09:47:35 09:51:54 36° 97° (E) 09:56:16 437.445
QB50P1 22 Dec 09:49:59 09:53:44 32° 70° (ENE) 09:57:29 145.935-145.965
ZACube-1 22 Dec 09:50:40 09:54:35 28° 96° (E) 09:58:31 437.345
COMPASS 1 22 Dec 09:54:58 09:59:07 52° 286° (WNW) 10:03:14 437.405
VELOX 1 22 Dec 09:59:30 10:02:25 17° 93° (E) 10:05:19 145.980
DELFI C3 22 Dec 10:00:28 10:04:34 63° 101° (E) 10:08:37 145.870
50 SAT 22 Dec 10:02:08 10:04:38 15° 92° (E) 10:07:06 437.505
SEEDS 22 Dec 10:03:13 10:07:08 35° 289° (WNW) 10:11:02 437.485
ANTELSAT 22 Dec 10:03:41 10:08:02 74° 75° (ENE) 10:12:33 437.575/2403.000
DOVE 4 22 Dec 10:03:54 10:08:39 58° 286° (WNW) 10:13:39 437.250
HO-68 22 Dec 10:06:44 10:13:39 54° 292° (WNW) 10:20:31 435.675
CUTE 1.7 + AOD 2 22 Dec 10:09:19 10:12:57 27° 291° (WNW) 10:16:35 437.475
CINEMA 3 22 Dec 10:15:58 10:20:45 72° 285° (WNW) 10:25:40 145.822/145.860
FUNcube-1 22 Dec 10:16:27 10:20:54 52° 100° (E) 10:25:23 145.935
POPSAT HIP 1 22 Dec 10:18:26 10:22:36 68° 75° (ENE) 10:26:47 437.405
O/OREOS (USA 219) 22 Dec 10:19:21 10:23:53 74° 67° (ENE) 10:28:25 437.305
UWE-3 22 Dec 10:21:45 10:26:23 72° 102° (ESE) 10:31:03 435.000/436.395/437.385
DANDE 22 Dec 10:22:55 10:26:18 35° 289° (WNW) 10:30:45 436.750
DX 1 22 Dec 10:32:03 10:36:22 67° 286° (WNW) 10:40:40 434.975-435.025
BUGSAT 1 22 Dec 10:35:39 10:39:45 87° 75° (ENE) 10:43:49 437.445
HUMSAT D 22 Dec 10:37:11 10:41:25 50° 100° (E) 10:45:39 437.325/437.525
TIGRISAT 22 Dec 10:38:17 10:42:28 47° 261° (W) 10:46:47 435.000
AISAT 22 Dec 10:42:38 10:46:59 52° 100° (E) 10:51:20 437.250
CUBEBUG 1 22 Dec 10:42:48 10:45:54 19° 94° (E) 10:48:59 437.445
DUCHIFAT 1 22 Dec 10:45:33 10:49:40 58° 259° (W) 10:53:50 145.980
Oscar 11 22 Dec 10:51:50 10:55:37 30° 290° (WNW) 10:59:24 145.826/435.025
AAUSAT CUBESAT 2 22 Dec 10:55:25 10:57:38 14° 296° (WNW) 10:59:51 437.432
QB50P2 22 Dec 11:00:46 11:04:41 37° 262° (W) 11:08:38 145.880/145.840
UKube-1 22 Dec 11:01:27 11:05:20 33° 290° (WNW) 11:09:12 .
CUSAT 1 22 Dec 11:07:46 11:09:31 12° 302° (WNW) 11:11:27 437.405
UNISAT 6 22 Dec 11:09:29 11:12:52 22° 266° (W) 11:16:21 437.425
POLYITAN 1 22 Dec 11:10:35 11:14:15 29° 263° (W) 11:17:58 437.675
NANOSAT C BR1 22 Dec 11:11:07 11:14:48 29° 263° (W) 11:18:30 145.865
YUBILEINY 22 Dec 11:11:14 11:19:59 86° 83° (E) 11:28:42 435.215
CUBEBUG 2 22 Dec 11:24:43 11:28:23 23° 292° (WNW) 11:32:06 437.445
QB50P1 22 Dec 11:26:32 11:29:40 20° 266° (W) 11:32:49 145.935-145.965
ZACube-1 22 Dec 11:27:00 11:30:52 28° 291° (WNW) 11:34:47 437.345
TISAT 1 22 Dec 11:34:06 11:36:51 17° 93° (E) 11:39:35 437.305
VELOX 1 22 Dec 11:35:00 11:39:10 42° 289° (WNW) 11:43:20 145.980
50 SAT 22 Dec 11:36:06 11:40:01 41° 288° (WNW) 11:43:55 437.505
DELFI C3 22 Dec 11:38:06 11:39:16 11° 297° (WNW) 11:40:27 145.870
RS-15 22 Dec 11:38:56 11:49:48 73° 117° (ESE) 12:00:41 29.354- 29.394
SPROUT 22 Dec 11:43:12 11:46:25 20° 94° (E) 11:49:37 437.525
ESTCUBE 1 22 Dec 11:44:05 11:48:36 84° 284° (WNW) 11:53:05 437.505/2401.250
FUNcube-1 22 Dec 11:54:04 11:56:50 16° 295° (WNW) 11:59:36 145.935
UWE-3 22 Dec 12:00:26 12:02:19 12° 297° (WNW) 12:04:13 435.000/436.395/437.385
ISS 22 Dec 12:12:17 12:14:47 20° 132° (SE) 12:17:18 145.825
BEESAT 3 22 Dec 12:13:04 12:16:23 24° 112° (ESE) 12:19:45 437.485
HUMSAT D 22 Dec 12:14:20 12:16:47 15° 295° (WNW) 12:19:16 437.325/437.525
CUBEBUG 1 22 Dec 12:18:24 12:22:22 36° 289° (WNW) 12:26:20 437.445
AISAT 22 Dec 12:20:39 12:23:10 15° 296° (WNW) 12:25:42 437.250
Oscar 19 22 Dec 12:27:11 12:32:00 42° 70° (ENE) 12:36:52 437.125/150
PCSat 22 Dec 12:30:16 12:34:22 22° 106° (ESE) 12:38:28 145.827
AIST 2 22 Dec 12:31:47 12:34:25 16° 109° (ESE) 12:37:04 435.215
ITAMSAT 1 22 Dec 12:48:00 12:52:12 26° 66° (ENE) 12:56:24 435.822/435.867
BEESAT 2 22 Dec 12:53:52 12:57:55 61° 119° (ESE) 13:02:02 435.950
Gurwin Techsat 1B 22 Dec 12:55:06 12:58:43 19° 63° (ENE) 13:02:20 435.225
TISAT 1 22 Dec 13:08:52 13:12:49 39° 288° (WNW) 13:16:46 437.305
YUBILEINY 22 Dec 13:10:13 13:15:33 18° 282° (WNW) 13:20:55 435.215
SWISSCUBE 22 Dec 13:11:51 13:16:06 32° 97° (E) 13:20:20 437.505
ITUPSAT 1 22 Dec 13:13:12 13:17:23 30° 96° (E) 13:21:31 437.325
SPROUT 22 Dec 13:18:41 13:22:33 33° 289° (WNW) 13:26:25 437.525
BEESAT 22 Dec 13:36:09 13:40:50 53° 100° (E) 13:45:27 436.000
ISS 22 Dec 13:47:59 13:51:10 44° 328° (NNW) 13:54:21 145.825
BEESAT 3 22 Dec 13:50:45 13:54:25 31° 310° (NW) 13:58:10 437.485
AO-7 22 Dec 13:52:02 13:58:07 23° 53° (NE) 14:04:12 29.400- 29.500
M-CUBED/EXP-1 PRIME 22 Dec 13:52:10 13:55:32 23° 98° (E) 13:58:40 437.505
RS-15 22 Dec 13:53:16 14:03:05 37° 321° (NW) 14:13:04 29.354- 29.394
STARS 22 Dec 14:01:51 14:03:45 13° 91° (E) 14:05:38 437.465
Oscar 19 22 Dec 14:07:31 14:11:29 23° 266° (W) 14:15:31 437.125/150
KKS-1 22 Dec 14:08:28 14:12:01 23° 95° (E) 14:15:34 437.445
AIST 2 22 Dec 14:08:31 14:12:37 48° 306° (NW) 14:16:48 435.215
PCSat 22 Dec 14:12:09 14:17:24 50° 304° (WNW) 14:22:41 145.827
ITAMSAT 1 22 Dec 14:26:40 14:31:29 39° 262° (W) 14:36:19 435.822/435.867
Gurwin Techsat 1B 22 Dec 14:33:00 14:38:13 57° 259° (W) 14:43:27 435.225
BEESAT 2 22 Dec 14:33:59 14:36:34 16° 317° (NW) 14:39:10 435.950
HORYU 2 22 Dec 14:37:17 14:41:42 65° 74° (ENE) 14:46:10 437.375
SWISSCUBE 22 Dec 14:49:53 14:53:50 26° 293° (WNW) 14:57:45 437.505
ITUPSAT 1 22 Dec 14:51:07 14:55:10 28° 292° (WNW) 14:59:12 437.325
AUBIESAT-1 22 Dec 14:59:15 15:03:29 64° 291° (WNW) 15:07:20 437.475
GONETS M04 22 Dec 15:11:12 15:17:31 21° 64° (ENE) 15:23:45
BEESAT 22 Dec 15:15:12 15:18:14 17° 297° (WNW) 15:21:15 436.000
AIST 1 22 Dec 15:21:22 15:23:49 15° 86° (E) 15:26:16
ISS 22 Dec 15:26:33 15:28:24 14° 347° (NNW) 15:30:14 145.825
M-CUBED/EXP-1 PRIME 22 Dec 15:26:50 15:30:34 29° 297° (WNW) 15:34:01 437.505
JAS-2 22 Dec 15:31:49 15:38:23 34° 67° (ENE) 15:44:25 435.910
STARS 22 Dec 15:36:12 15:40:34 58° 286° (WNW) 15:44:55 437.465
AO-7 22 Dec 15:41:35 15:49:56 84° 253° (WSW) 15:58:21 29.400- 29.500
KKS-1 22 Dec 15:44:42 15:48:41 32° 290° (WNW) 15:52:39 437.445
RS-15 22 Dec 16:12:47 16:20:02 19° 356° (N) 16:27:26 29.354- 29.394
HORYU 2 22 Dec 16:17:24 16:18:47 11° 270° (W) 16:20:11 437.375
CUTE-I 22 Dec 16:32:30 16:36:04 19° 62° (ENE) 16:39:38 437.470
AIST 1 22 Dec 16:56:53 17:01:04 43° 282° (WNW) 17:05:14
ISS 22 Dec 17:04:34 17:06:04 13° 8° (N) 17:07:35 145.825
GONETS M04 22 Dec 17:06:37 17:15:23 81° 265° (W) 17:24:03
MOZHAYETS 4 22 Dec 17:08:31 17:13:07 65° 101° (E) 17:17:40
MaSat-1 22 Dec 17:09:19 17:10:33 13° 58° (ENE) 17:11:49 437.345
JAS-2 22 Dec 17:15:52 17:23:11 49° 261° (W) 17:29:55 435.910
Cubesat XI-IV 22 Dec 17:37:40 17:42:58 72° 74° (ENE) 17:48:17 437.490
AO-7 22 Dec 17:39:14 17:43:48 16° 271° (W) 17:48:25 29.400- 29.500
STRAND 1 22 Dec 18:03:32 18:06:29 15° 91° (E) 18:09:26 437.568
CUTE-I 22 Dec 18:10:25 18:15:39 58° 259° (W) 18:20:54 437.470
CUSAT 1 22 Dec 18:19:41 18:22:44 12° 59° (ENE) 18:25:53 437.405
RS-15 22 Dec 18:28:19 18:37:42 29° 31° (NNE) 18:47:20 29.354- 29.394
CUBESAT XI-V 22 Dec 18:37:49 18:42:10 40° 98° (E) 18:46:28 437.345
ISS 22 Dec 18:40:28 18:43:27 31° 28° (NNE) 18:46:24 145.825
PRISM 22 Dec 18:41:32 18:45:43 87° 284° (WNW) 18:49:49 437.425
MaSat-1 22 Dec 18:42:03 18:43:37 15° 251° (WSW) 18:45:13 437.345
MOZHAYETS 4 22 Dec 18:47:35 18:49:46 13° 297° (WNW) 18:51:56
HO-68 22 Dec 18:48:54 18:54:04 22° 57° (ENE) 18:59:14 435.675
BRITE-PL 22 Dec 19:05:30 19:06:37 11° 63° (ENE) 19:07:43 437.365/2234.400
GONETS M04 22 Dec 19:06:29 19:10:41 15° 285° (WNW) 19:14:52
DANDE 22 Dec 19:19:34 19:26:17 30° 70° (ENE) 19:33:34 436.750
GOMX 1 22 Dec 19:20:29 19:21:49 11° 63° (ENE) 19:23:09 467.674
Cubesat XI-IV 22 Dec 19:21:01 19:23:34 14° 270° (W) 19:26:08 437.490
SEEDS 22 Dec 19:21:19 19:23:27 14° 64° (ENE) 19:25:36 437.485
CUTE 1.7 + AOD 2 22 Dec 19:26:52 19:29:48 18° 66° (ENE) 19:32:45 437.475
DOVE 4 22 Dec 19:35:02 19:36:42 12° 63° (ENE) 19:38:22 437.250
STRAND 1 22 Dec 19:41:02 19:46:03 60° 287° (WNW) 19:51:03 437.568
CUSAT 1 22 Dec 19:59:23 20:07:13 59° 77° (ENE) 20:15:36 437.405
SO-50 22 Dec 20:05:59 20:10:04 35° 114° (ESE) 20:14:17 436.795
AAUSAT CUBESAT 2 22 Dec 20:09:14 20:13:00 33° 71° (ENE) 20:16:49 437.432
Oscar 11 22 Dec 20:11:01 20:14:00 19° 66° (ENE) 20:17:00 145.826/435.025
CUBESAT XI-V 22 Dec 20:15:59 20:19:18 20° 294° (WNW) 20:22:37 437.345
ISS 22 Dec 20:17:03 20:20:00 31° 225° (SW) 20:22:56 145.825
UKube-1 22 Dec 20:21:07 20:24:05 18° 65° (ENE) 20:27:03 .
CANX-2 22 Dec 20:30:34 20:34:50 80° 258° (WSW) 20:39:10 2200.000
BEESAT 3 22 Dec 20:33:18 20:36:02 17° 44° (NE) 20:38:44 437.485
HO-68 22 Dec 20:33:51 20:41:02 76° 255° (WSW) 20:48:14 435.675
BRITE-PL 22 Dec 20:40:31 20:44:37 60° 259° (W) 20:48:44 437.365/2234.400
RS-15 22 Dec 20:40:38 20:52:00 83° 58° (ENE) 21:03:51 29.354- 29.394
COMPASS 1 22 Dec 20:45:46 20:49:59 82° 258° (WSW) 20:54:16 437.405
CUBEBUG 2 22 Dec 20:46:17 20:49:49 27° 69° (ENE) 20:53:25 437.445
ZACube-1 22 Dec 20:47:18 20:50:23 20° 67° (ENE) 20:53:30 437.345
DELFI C3 22 Dec 20:48:36 20:52:23 37° 72° (ENE) 20:56:12 145.870
AIST 2 22 Dec 20:53:55 20:55:57 13° 40° (NE) 20:57:58 435.215
SEEDS 22 Dec 20:54:39 20:58:48 53° 260° (W) 21:03:00 437.485
GOMX 1 22 Dec 20:55:20 20:59:25 59° 260° (W) 21:03:34 467.674
VELOX 1 22 Dec 20:57:42 21:00:20 16° 64° (ENE) 21:02:59 145.980
CUTE 1.7 + AOD 2 22 Dec 21:01:26 21:05:25 38° 262° (W) 21:09:28 437.475
DANDE 22 Dec 21:02:17 21:10:09 67° 265° (W) 21:18:44 436.750
DOVE 4 22 Dec 21:09:54 21:13:58 56° 260° (W) 21:18:07 437.250
FUNcube-1 22 Dec 21:12:23 21:16:14 36° 71° (ENE) 21:20:10 145.935
BEESAT 2 22 Dec 21:14:36 21:18:27 34° 51° (NE) 21:22:14 435.950
CINEMA 3 22 Dec 21:17:48 21:21:58 81° 258° (WSW) 21:26:16 145.822/145.860
PCSat 22 Dec 21:17:59 21:21:52 20° 45° (NE) 21:25:44 145.827
UWE-3 22 Dec 21:18:53 21:22:57 52° 73° (ENE) 21:27:09 435.000/436.395/437.385
DX 1 22 Dec 21:27:03 21:31:23 82° 257° (WSW) 21:35:45 434.975-435.025
HUMSAT D 22 Dec 21:29:18 21:33:00 33° 71° (ENE) 21:36:46 437.325/437.525
CUBEBUG 1 22 Dec 21:39:29 21:42:11 16° 65° (ENE) 21:44:53 437.445
AISAT 22 Dec 21:40:25 21:44:37 45° 72° (ENE) 21:48:50 437.250
CUSAT 1 22 Dec 21:43:06 21:49:57 32° 272° (W) 21:57:10 437.405
AAUSAT CUBESAT 2 22 Dec 21:45:38 21:48:44 20° 266° (W) 21:51:51 437.432
Oscar 11 22 Dec 21:45:48 21:49:52 39° 262° (W) 21:53:58 145.826/435.025
SO-50 22 Dec 21:46:42 21:50:39 28° 313° (NW) 21:54:42 436.795
UKube-1 22 Dec 21:55:52 21:59:56 40° 261° (W) 22:04:01 .
ANTELSAT 22 Dec 21:57:29 22:00:38 18° 92° (E) 22:03:46 437.575/2403.000
POPSAT HIP 1 22 Dec 22:06:39 22:08:13 12° 91° (E) 22:09:46 437.405
BEESAT 3 22 Dec 22:10:28 22:14:33 57° 242° (WSW) 22:18:35 437.485
YUBILEINY 22 Dec 22:18:19 22:24:01 20° 79° (ENE) 22:29:42 435.215
BUGSAT 1 22 Dec 22:20:32 22:22:21 13° 92° (E) 22:24:11 437.445
ZACube-1 22 Dec 22:22:43 22:26:31 33° 263° (W) 22:30:25 437.345
CUBEBUG 2 22 Dec 22:23:02 22:26:28 24° 265° (W) 22:30:00 437.445
50 SAT 22 Dec 22:23:30 22:27:30 71° 259° (WSW) 22:31:34 437.505
DELFI C3 22 Dec 22:25:05 22:27:47 17° 267° (W) 22:30:29 145.870
HO-68 22 Dec 22:27:33 22:29:48 12° 273° (W) 22:32:03 435.675
TISAT 1 22 Dec 22:27:35 22:29:28 13° 63° (ENE) 22:31:22 437.305
TIGRISAT 22 Dec 22:30:30 22:34:53 37° 98° (E) 22:39:15 435.000
AIST 2 22 Dec 22:30:52 22:35:11 87° 239° (WSW) 22:39:25 435.215
DUCHIFAT 1 22 Dec 22:31:49 22:35:14 23° 95° (E) 22:38:37 145.980
VELOX 1 22 Dec 22:32:14 22:36:31 49° 260° (W) 22:40:48 145.980
SPROUT 22 Dec 22:38:00 22:40:35 16° 65° (ENE) 22:43:10 437.525
